カタログに戻る

EXPRESS AMU-7

運用中通信GEO
NORAD 50001·PAYLOAD·🇷🇺 Russia

打ち上げ Dec 13, 2021 から Baikonur Cosmodrome

Loading…

TLE

最新Source: Space-Track

元期: Sep 14, 2026, 11:38 UTC

1 50001U 21123A   26257.48517015 -.00000251  00000-0  00000-0 0  9997
2 50001   0.0293 256.3843 0000046 113.7253 303.0266  1.00271838 17430

AllMySatでEXPRESS AMU-7をリアルタイム追跡

Download on the App Store